When you browse on this site, cookies collect data to enhance your experience and personalize the content and advertising you see.
Visit our Privacy Policy to learn more. By continuing to use the site, you agree to this use of cookies and data.
  • In Netherlands
  • List of Countries
  • For 7 days
  • Water Temperature
  • Weather Map
  • Weather Widgets
  • user-avatar
    Login

    Hourly Weather Krutaya

    Today, 3 June, Wednesday

    Time Temperature Precipitation Wind Pressure Humidity
    00:00 +7°C° 0 mm 3 mps 736 mmHg 97%
    01:00 +7°C° 0 mm 2 mps 736 mmHg 96%
    02:00 +6°C° 0 mm 2 mps 736 mmHg 97%
    03:00 +7°C° 0 mm 2 mps 736 mmHg 97%
    04:00 +7°C° 0 mm 2 mps 736 mmHg 97%
    05:00 +7°C° 0 mm 3 mps 735 mmHg 97%
    06:00 +9°C° 0 mm 2 mps 736 mmHg 94%
    07:00 +10°C° 0 mm 2 mps 736 mmHg 91%
    08:00 +13°C° 0 mm 2 mps 736 mmHg 88%
    09:00 +14°C° 0.1 mm 2 mps 736 mmHg 83%
    10:00 +14°C° 0.1 mm 3 mps 736 mmHg 78%
    11:00 +16°C° 0.1 mm 3 mps 735 mmHg 73%
    12:00 +17°C° 0.2 mm 3 mps 735 mmHg 71%
    13:00 +17°C° 0.2 mm 3 mps 735 mmHg 69%
    14:00 +18°C° 0.2 mm 3 mps 735 mmHg 67%
    15:00 +17°C° 0.2 mm 3 mps 735 mmHg 68%
    16:00 +17°C° 0.2 mm 2 mps 734 mmHg 70%
    17:00 +17°C° 0.2 mm 2 mps 734 mmHg 72%
    18:00 +16°C° 0.1 mm 2 mps 734 mmHg 77%
    19:00 +14°C° 0.1 mm 1 mps 734 mmHg 82%
    20:00 +12°C° 0.1 mm 1 mps 734 mmHg 87%
    21:00 +12°C° 0 mm 1 mps 733 mmHg 88%
    22:00 +11°C° 0 mm 1 mps 733 mmHg 89%
    23:00 +10°C° 0 mm 1 mps 733 mmHg 90%

    Tomorrow, 4 June, Thursday

    Time Temperature Precipitation Wind Pressure Humidity
    00:00 +10°C° 0 mm 1 mps 733 mmHg 91%
    01:00 +9°C° 0 mm 1 mps 733 mmHg 91%
    02:00 +9°C° 0 mm 1 mps 733 mmHg 92%
    03:00 +9°C° 0 mm 1 mps 732 mmHg 91%
    04:00 +10°C° 0 mm 1 mps 732 mmHg 91%
    05:00 +10°C° 0 mm 1 mps 732 mmHg 90%
    06:00 +11°C° 0 mm 1 mps 732 mmHg 87%
    07:00 +13°C° 0 mm 2 mps 732 mmHg 84%
    08:00 +14°C° 0 mm 2 mps 732 mmHg 81%
    09:00 +14°C° 0.2 mm 3 mps 732 mmHg 79%
    10:00 +16°C° 0.2 mm 3 mps 732 mmHg 76%
    11:00 +17°C° 0.2 mm 3 mps 732 mmHg 73%
    12:00 +17°C° 0.9 mm 3 mps 732 mmHg 74%
    13:00 +17°C° 0.9 mm 4 mps 732 mmHg 76%
    14:00 +17°C° 0.9 mm 4 mps 732 mmHg 77%
    15:00 +17°C° 0.4 mm 4 mps 732 mmHg 78%
    16:00 +17°C° 0.4 mm 4 mps 731 mmHg 78%
    17:00 +17°C° 0.4 mm 4 mps 731 mmHg 79%
    18:00 +14°C° 0.1 mm 4 mps 731 mmHg 82%
    19:00 +13°C° 0.1 mm 3 mps 731 mmHg 86%
    20:00 +11°C° 0.1 mm 3 mps 731 mmHg 89%
    21:00 +11°C° 0 mm 3 mps 731 mmHg 91%
    22:00 +10°C° 0 mm 3 mps 731 mmHg 92%
    23:00 +9°C° 0 mm 3 mps 731 mmHg 93%

    Day after tomorrow, 5 June, Friday

    Time Temperature Precipitation Wind Pressure Humidity
    00:00 +9°C° 0 mm 3 mps 731 mmHg 94%
    01:00 +9°C° 0 mm 3 mps 731 mmHg 94%
    02:00 +9°C° 0 mm 3 mps 731 mmHg 95%
    03:00 +9°C° 0.1 mm 3 mps 731 mmHg 95%
    04:00 +9°C° 0.1 mm 3 mps 731 mmHg 96%
    05:00 +9°C° 0.1 mm 3 mps 731 mmHg 96%
    06:00 +11°C° 0.3 mm 3 mps 732 mmHg 93%
    07:00 +12°C° 0.3 mm 4 mps 732 mmHg 90%
    08:00 +14°C° 0.3 mm 4 mps 732 mmHg 86%
    09:00 +15°C° 0.6 mm 4 mps 732 mmHg 83%
    10:00 +16°C° 0.6 mm 5 mps 732 mmHg 79%
    11:00 +17°C° 0.6 mm 5 mps 732 mmHg 76%
    12:00 +18°C° 0.3 mm 4 mps 732 mmHg 74%
    13:00 +19°C° 0.3 mm 4 mps 732 mmHg 72%
    14:00 +19°C° 0.3 mm 4 mps 732 mmHg 70%
    15:00 +19°C° 0.1 mm 4 mps 733 mmHg 72%
    16:00 +19°C° 0.1 mm 4 mps 733 mmHg 75%
    17:00 +19°C° 0.1 mm 4 mps 733 mmHg 77%
    18:00 +18°C° 0.2 mm 3 mps 733 mmHg 83%
    19:00 +17°C° 0.2 mm 3 mps 733 mmHg 88%
    20:00 +16°C° 0.2 mm 3 mps 733 mmHg 94%
    21:00 +14°C° 0 mm 3 mps 733 mmHg 95%
    22:00 +14°C° 0 mm 4 mps 734 mmHg 96%
    23:00 +13°C° 0 mm 4 mps 734 mmHg 97%

    6 June, Saturday

    Time Temperature Precipitation Wind Pressure Humidity
    00:00 +13°C° 0 mm 3 mps 734 mmHg 97%
    01:00 +13°C° 0 mm 3 mps 734 mmHg 97%
    02:00 +13°C° 0 mm 3 mps 734 mmHg 97%
    03:00 +13°C° 0.1 mm 3 mps 734 mmHg 97%
    04:00 +14°C° 0.1 mm 4 mps 734 mmHg 96%
    05:00 +14°C° 0.1 mm 4 mps 734 mmHg 95%
    06:00 +15°C° 0 mm 4 mps 734 mmHg 94%
    07:00 +17°C° 0 mm 4 mps 734 mmHg 92%
    08:00 +19°C° 0 mm 5 mps 734 mmHg 90%
    09:00 +19°C° 0 mm 5 mps 735 mmHg 89%
    10:00 +20°C° 0 mm 5 mps 735 mmHg 88%
    11:00 +20°C° 0 mm 5 mps 735 mmHg 87%
    12:00 +20°C° 0.2 mm 5 mps 735 mmHg 86%
    13:00 +21°C° 0.2 mm 5 mps 736 mmHg 86%
    14:00 +21°C° 0.2 mm 5 mps 736 mmHg 85%
    15:00 +21°C° 0.5 mm 5 mps 736 mmHg 85%
    16:00 +21°C° 0.5 mm 5 mps 736 mmHg 85%
    17:00 +21°C° 0.5 mm 5 mps 736 mmHg 84%
    18:00 +20°C° 0.3 mm 4 mps 737 mmHg 87%
    19:00 +19°C° 0.3 mm 3 mps 737 mmHg 90%
    20:00 +18°C° 0.3 mm 3 mps 738 mmHg 93%
    21:00 +17°C° 0 mm 2 mps 739 mmHg 93%
    22:00 +16°C° 0 mm 2 mps 739 mmHg 93%
    23:00 +16°C° 0 mm 2 mps 740 mmHg 93%

    7 June, Sunday

    Time Temperature Precipitation Wind Pressure Humidity
    00:00 +15°C° 0 mm 1 mps 740 mmHg 92%
    01:00 +14°C° 0 mm 1 mps 740 mmHg 91%
    02:00 +14°C° 0 mm 1 mps 741 mmHg 90%
    03:00 +14°C° 0 mm 1 mps 741 mmHg 90%
    04:00 +15°C° 0 mm 1 mps 741 mmHg 90%
    05:00 +15°C° 0 mm 2 mps 742 mmHg 90%
    06:00 +16°C° 0 mm 2 mps 742 mmHg 88%
    07:00 +18°C° 0 mm 2 mps 742 mmHg 87%
    08:00 +19°C° 0 mm 3 mps 742 mmHg 85%
    09:00 +21°C° 0.7 mm 3 mps 742 mmHg 83%
    10:00 +22°C° 0.7 mm 4 mps 742 mmHg 80%
    11:00 +23°C° 0.7 mm 4 mps 742 mmHg 78%
    12:00 +23°C° 0.2 mm 4 mps 742 mmHg 76%
    13:00 +25°C° 0.2 mm 5 mps 742 mmHg 74%
    14:00 +25°C° 0.2 mm 5 mps 742 mmHg 73%
    15:00 +25°C° 0.3 mm 5 mps 741 mmHg 76%
    16:00 +23°C° 0.3 mm 5 mps 741 mmHg 80%
    17:00 +23°C° 0.3 mm 5 mps 741 mmHg 84%
    18:00 +22°C° 0.6 mm 5 mps 741 mmHg 86%
    19:00 +21°C° 0.6 mm 5 mps 741 mmHg 88%
    20:00 +19°C° 0.6 mm 5 mps 741 mmHg 90%
    21:00 +19°C° 0.4 mm 5 mps 741 mmHg 90%
    22:00 +18°C° 0.4 mm 4 mps 741 mmHg 90%
    23:00 +17°C° 0.4 mm 4 mps 741 mmHg 90%

    8 June, Monday

    Time Temperature Precipitation Wind Pressure Humidity
    00:00 +17°C° 0.1 mm 5 mps 741 mmHg 90%
    01:00 +17°C° 0.1 mm 5 mps 741 mmHg 90%
    02:00 +17°C° 0.1 mm 6 mps 741 mmHg 89%
    03:00 +17°C° 0.1 mm 6 mps 741 mmHg 90%
    04:00 +17°C° 0.1 mm 6 mps 741 mmHg 90%
    05:00 +17°C° 0.1 mm 6 mps 741 mmHg 90%
    06:00 +19°C° 0 mm 6 mps 741 mmHg 89%
    07:00 +20°C° 0 mm 6 mps 741 mmHg 89%
    08:00 +21°C° 0 mm 6 mps 741 mmHg 88%
    09:00 +22°C° 0 mm 6 mps 741 mmHg 83%
    10:00 +23°C° 0 mm 6 mps 742 mmHg 78%
    11:00 +24°C° 0 mm 6 mps 742 mmHg 73%
    12:00 +26°C° 0.1 mm 6 mps 742 mmHg 73%
    13:00 +26°C° 0.1 mm 6 mps 742 mmHg 72%
    14:00 +27°C° 0.1 mm 6 mps 742 mmHg 71%
    15:00 +26°C° 0.1 mm 6 mps 742 mmHg 74%
    16:00 +26°C° 0.1 mm 5 mps 742 mmHg 77%
    17:00 +26°C° 0.1 mm 5 mps 742 mmHg 79%
    18:00 +25°C° 0 mm 4 mps 742 mmHg 83%
    19:00 +22°C° 0 mm 4 mps 742 mmHg 86%
    20:00 +21°C° 0 mm 3 mps 742 mmHg 90%
    21:00 +21°C° 0 mm 3 mps 742 mmHg 91%
    22:00 +20°C° 0 mm 3 mps 742 mmHg 93%
    23:00 +19°C° 0 mm 3 mps 743 mmHg 95%
    Show more